Time,TemperatureF,DewpointF,PressureIn,WindDirection,WindDirectionDegrees,WindSpeedMPH,WindSpeedGustMPH,Humidity,HourlyPrecipIn,Conditions,Clouds,dailyrainin,SolarRadiationWatts/m^2,SoftwareType,DateUTC
2013-05-13 00:02:00,64.2,58.6,30.03,West,261,0.0,0.0,82,0.00,,,0.00,0.0,meteohub,2013-05-13 04:02:00,
2013-05-13 00:07:00,64.2,58.3,30.03,West,261,0.0,1.0,81,0.00,,,0.00,0.0,meteohub,2013-05-13 04:07:00,
2013-05-13 00:08:00,64.2,58.3,30.03,West,261,0.0,1.0,81,0.00,,,0.00,0.0,meteohub,2013-05-13 04:08:00,
2013-05-13 00:14:00,64.2,58.3,30.02,West,261,0.0,1.0,81,0.00,,,0.00,0.0,meteohub,2013-05-13 04:14:00,
2013-05-13 00:17:00,64.2,57.9,30.02,West,261,0.0,1.0,80,0.00,,,0.00,0.0,meteohub,2013-05-13 04:17:00,
2013-05-13 00:23:00,64.2,57.9,30.02,West,261,0.0,0.0,80,0.00,,,0.00,0.0,meteohub,2013-05-13 04:23:00,
2013-05-13 00:29:00,64.2,57.9,30.03,West,261,0.0,0.0,80,0.00,,,0.00,0.0,meteohub,2013-05-13 04:29:00,
2013-05-13 00:36:00,64.2,57.9,30.02,West,261,0.0,0.0,80,0.00,,,0.00,0.0,meteohub,2013-05-13 04:36:00,
2013-05-13 00:42:00,64.2,57.9,30.03,West,261,0.0,0.0,80,0.00,,,0.00,0.0,meteohub,2013-05-13 04:42:00,
2013-05-13 00:47:00,64.2,57.6,30.02,West,261,0.0,0.0,79,0.00,,,0.00,0.0,meteohub,2013-05-13 04:47:00,
2013-05-13 00:52:00,64.2,57.9,30.01,West,261,0.0,0.0,80,0.00,,,0.00,0.0,meteohub,2013-05-13 04:52:00,
2013-05-13 00:57:00,64.0,57.7,30.02,West,261,0.0,0.0,80,0.00,,,0.00,0.0,meteohub,2013-05-13 04:57:00,
2013-05-13 01:02:00,64.0,57.7,30.02,West,261,0.0,0.0,80,0.00,,,0.00,0.0,meteohub,2013-05-13 05:02:00,
2013-05-13 01:07:00,64.0,57.4,30.02,West,261,0.0,0.0,79,0.00,,,0.00,0.0,meteohub,2013-05-13 05:07:00,
2013-05-13 01:12:00,64.0,57.7,30.02,West,261,0.0,0.0,80,0.00,,,0.00,0.0,meteohub,2013-05-13 05:12:00,
2013-05-13 01:17:00,64.0,57.7,30.02,West,261,0.0,0.0,80,0.00,,,0.00,0.0,meteohub,2013-05-13 05:17:00,
2013-05-13 01:22:00,64.0,57.7,30.01,West,261,0.0,0.0,80,0.00,,,0.00,0.0,meteohub,2013-05-13 05:22:00,
2013-05-13 01:27:00,64.0,57.7,30.01,West,261,0.0,0.0,80,0.00,,,0.00,0.0,meteohub,2013-05-13 05:27:00,
2013-05-13 01:32:00,64.0,58.1,30.01,West,261,0.0,0.0,81,0.00,,,0.00,0.0,meteohub,2013-05-13 05:32:00,
2013-05-13 01:37:00,63.9,57.9,30.01,West,261,0.0,0.0,81,0.00,,,0.00,0.0,meteohub,2013-05-13 05:37:00,
2013-05-13 01:42:00,63.9,57.9,30.01,West,261,0.0,0.0,81,0.00,,,0.00,0.0,meteohub,2013-05-13 05:42:00,
2013-05-13 01:47:00,63.7,57.7,30.01,West,261,0.0,0.0,81,0.00,,,0.00,0.0,meteohub,2013-05-13 05:47:00,
2013-05-13 01:52:00,63.5,57.2,30.01,West,261,0.0,0.0,80,0.00,,,0.00,0.0,meteohub,2013-05-13 05:52:00,
2013-05-13 01:57:00,63.3,57.0,30.01,West,261,0.0,1.0,80,0.00,,,0.00,0.0,meteohub,2013-05-13 05:57:00,
2013-05-13 02:02:00,63.1,56.8,30.01,West,261,0.0,1.0,80,0.00,,,0.00,0.0,meteohub,2013-05-13 06:02:00,
2013-05-13 02:07:00,63.0,56.7,30.02,West,261,0.0,1.0,80,0.00,,,0.00,0.0,meteohub,2013-05-13 06:07:00,
2013-05-13 02:12:00,62.8,56.5,30.01,West,261,0.0,1.0,80,0.00,,,0.00,0.0,meteohub,2013-05-13 06:12:00,
2013-05-13 02:17:00,62.4,56.1,30.01,West,261,0.0,1.0,80,0.00,,,0.00,0.0,meteohub,2013-05-13 06:17:00,
2013-05-13 02:22:00,62.2,55.9,30.01,West,261,0.0,1.0,80,0.00,,,0.00,0.0,meteohub,2013-05-13 06:22:00,
2013-05-13 02:27:00,62.1,55.4,30.01,West,261,0.0,1.0,79,0.00,,,0.00,0.0,meteohub,2013-05-13 06:27:00,
2013-05-13 02:32:00,62.1,55.0,30.01,West,261,0.0,1.0,78,0.00,,,0.00,0.0,meteohub,2013-05-13 06:32:00,
2013-05-13 02:37:00,61.9,54.9,30.01,West,261,0.0,1.0,78,0.00,,,0.00,0.0,meteohub,2013-05-13 06:37:00,
2013-05-13 02:42:00,62.1,54.7,30.01,West,261,0.0,1.0,77,0.00,,,0.00,0.0,meteohub,2013-05-13 06:42:00,
2013-05-13 02:47:00,62.1,54.3,30.01,West,261,0.0,1.0,76,0.00,,,0.00,0.0,meteohub,2013-05-13 06:47:00,
2013-05-13 02:52:00,62.2,54.5,30.01,West,261,0.0,1.0,76,0.00,,,0.00,0.0,meteohub,2013-05-13 06:52:00,
2013-05-13 02:57:00,62.2,54.5,30.01,West,261,0.0,1.0,76,0.00,,,0.00,0.0,meteohub,2013-05-13 06:57:00,
2013-05-13 03:02:00,62.2,54.1,30.02,West,261,0.0,1.0,75,0.00,,,0.00,0.0,meteohub,2013-05-13 07:02:00,
2013-05-13 03:07:00,62.4,54.3,30.02,West,261,0.0,1.0,75,0.00,,,0.00,0.0,meteohub,2013-05-13 07:07:00,
2013-05-13 03:12:00,62.4,54.0,30.02,WSW,238,0.0,1.0,74,0.00,,,0.00,0.0,meteohub,2013-05-13 07:12:00,
2013-05-13 03:17:00,62.4,52.9,30.01,ENE,64,0.0,1.0,71,0.00,,,0.00,0.0,meteohub,2013-05-13 07:17:00,
2013-05-13 03:22:00,62.4,51.8,30.02,ENE,71,0.0,1.0,68,0.00,,,0.00,0.0,meteohub,2013-05-13 07:22:00,
2013-05-13 03:27:00,62.4,50.9,30.02,NNE,22,0.0,5.0,66,0.00,,,0.00,0.0,meteohub,2013-05-13 07:27:00,
2013-05-13 03:32:00,62.4,50.9,30.02,NNE,22,0.0,5.0,66,0.00,,,0.00,0.0,meteohub,2013-05-13 07:32:00,
2013-05-13 03:37:00,62.4,50.9,30.02,West,273,0.0,5.0,66,0.00,,,0.00,0.0,meteohub,2013-05-13 07:37:00,
2013-05-13 03:42:00,62.4,50.9,30.03,West,273,0.0,5.0,66,0.00,,,0.00,0.0,meteohub,2013-05-13 07:42:00,
2013-05-13 03:47:00,62.4,51.3,30.04,West,273,0.0,1.0,67,0.00,,,0.00,0.0,meteohub,2013-05-13 07:47:00,
2013-05-13 03:52:00,62.4,52.2,30.03,West,273,0.0,1.0,69,0.00,,,0.00,0.0,meteohub,2013-05-13 07:52:00,
2013-05-13 03:59:00,62.4,52.5,30.03,West,273,0.0,1.0,70,0.00,,,0.00,0.0,meteohub,2013-05-13 07:59:00,
2013-05-13 04:05:00,62.2,52.0,30.03,West,275,0.0,1.0,69,0.00,,,0.00,0.0,meteohub,2013-05-13 08:05:00,
2013-05-13 04:11:00,62.1,51.4,30.04,West,277,0.0,1.0,68,0.00,,,0.00,0.0,meteohub,2013-05-13 08:11:00,
2013-05-13 04:17:00,62.1,50.9,30.04,North,11,0.0,3.0,67,0.00,,,0.00,0.0,meteohub,2013-05-13 08:17:00,
2013-05-13 04:23:00,61.9,50.7,30.04,ENE,74,0.0,3.0,67,0.00,,,0.00,0.0,meteohub,2013-05-13 08:23:00,
2013-05-13 04:29:00,61.9,50.4,30.04,NE,49,0.0,3.0,66,0.00,,,0.00,0.0,meteohub,2013-05-13 08:29:00,
2013-05-13 04:35:00,61.7,50.2,30.04,NE,50,0.0,2.0,66,0.00,,,0.00,0.0,meteohub,2013-05-13 08:35:00,
2013-05-13 04:42:00,61.5,49.6,30.04,NNW,343,0.0,2.0,65,0.00,,,0.00,0.0,meteohub,2013-05-13 08:42:00,
2013-05-13 04:47:00,61.5,49.3,30.04,East,100,0.0,2.0,64,0.00,,,0.00,0.0,meteohub,2013-05-13 08:47:00,
2013-05-13 04:52:00,61.3,48.2,30.04,ENE,57,0.0,2.0,62,0.00,,,0.00,0.0,meteohub,2013-05-13 08:52:00,
2013-05-13 04:57:00,61.3,48.2,30.05,ENE,57,0.0,2.0,62,0.00,,,0.00,0.0,meteohub,2013-05-13 08:57:00,
2013-05-13 05:02:00,61.2,47.7,30.04,ENE,57,0.0,2.0,61,0.00,,,0.00,0.0,meteohub,2013-05-13 09:02:00,
2013-05-13 05:07:00,61.2,47.1,30.04,ENE,61,0.0,2.0,60,0.00,,,0.00,0.0,meteohub,2013-05-13 09:07:00,
2013-05-13 05:12:00,61.0,46.9,30.05,East,80,0.0,2.0,60,0.00,,,0.00,0.0,meteohub,2013-05-13 09:12:00,
2013-05-13 05:17:00,61.0,47.5,30.05,East,80,0.0,3.0,61,0.00,,,0.00,0.0,meteohub,2013-05-13 09:17:00,
2013-05-13 05:22:00,60.8,46.8,30.05,East,90,0.0,3.0,60,0.00,,,0.00,0.0,meteohub,2013-05-13 09:22:00,
2013-05-13 05:27:00,60.6,46.2,30.05,NE,39,1.0,4.0,59,0.00,,,0.00,0.0,meteohub,2013-05-13 09:27:00,
2013-05-13 05:32:00,60.4,45.7,30.05,NE,41,0.0,4.0,58,0.00,,,0.00,0.0,meteohub,2013-05-13 09:32:00,
2013-05-13 05:37:00,60.4,46.0,30.05,NE,42,0.0,4.0,59,0.00,,,0.00,0.0,meteohub,2013-05-13 09:37:00,
2013-05-13 05:42:00,60.1,45.7,30.05,NE,46,0.0,4.0,59,0.00,,,0.00,0.0,meteohub,2013-05-13 09:42:00,
2013-05-13 05:50:00,59.9,45.5,30.05,NE,52,0.0,3.0,59,0.00,,,0.00,0.0,meteohub,2013-05-13 09:50:00,
2013-05-13 05:56:00,59.7,45.9,30.05,NE,52,0.0,3.0,60,0.00,,,0.00,0.0,meteohub,2013-05-13 09:56:00,
2013-05-13 06:02:00,59.5,46.0,30.06,NE,52,0.0,3.0,61,0.00,,,0.00,0.0,meteohub,2013-05-13 10:02:00,
2013-05-13 06:07:00,59.2,45.7,30.06,NE,52,0.0,0.0,61,0.00,,,0.00,0.0,meteohub,2013-05-13 10:07:00,
2013-05-13 06:12:00,58.8,45.3,30.06,NE,50,0.0,0.0,61,0.00,,,0.00,0.0,meteohub,2013-05-13 10:12:00,
2013-05-13 06:17:00,58.6,45.7,30.07,NE,51,0.0,0.0,62,0.00,,,0.00,0.0,meteohub,2013-05-13 10:17:00,
2013-05-13 06:22:00,58.5,46.4,30.07,NE,51,0.0,1.0,64,0.00,,,0.00,0.0,meteohub,2013-05-13 10:22:00,
2013-05-13 06:27:00,58.3,46.2,30.07,NE,51,0.0,1.0,64,0.00,,,0.00,0.0,meteohub,2013-05-13 10:27:00,
2013-05-13 06:33:00,58.1,46.4,30.07,NE,51,0.0,0.0,65,0.00,,,0.00,0.0,meteohub,2013-05-13 10:33:00,
2013-05-13 06:39:00,57.9,46.9,30.07,NE,51,0.0,0.0,67,0.00,,,0.00,0.0,meteohub,2013-05-13 10:39:00,
2013-05-13 06:45:00,57.6,46.2,30.07,NE,51,0.0,0.0,66,0.00,,,0.00,7.0,meteohub,2013-05-13 10:45:00,
2013-05-13 06:51:00,57.4,45.7,30.08,NE,51,0.0,1.0,65,0.00,,,0.00,14.0,meteohub,2013-05-13 10:51:00,
2013-05-13 06:57:00,57.2,45.5,30.08,NE,51,0.0,1.0,65,0.00,,,0.00,23.0,meteohub,2013-05-13 10:57:00,
2013-05-13 07:04:00,57.0,45.3,30.08,NE,51,0.0,1.0,65,0.00,,,0.00,26.0,meteohub,2013-05-13 11:04:00,
2013-05-13 07:10:00,56.8,45.1,30.08,NNW,331,0.0,1.0,65,0.00,,,0.00,26.0,meteohub,2013-05-13 11:10:00,
2013-05-13 07:16:00,56.8,45.7,30.09,SW,227,0.0,1.0,66,0.00,,,0.00,30.0,meteohub,2013-05-13 11:16:00,
2013-05-13 07:22:00,56.8,45.7,30.09,SW,227,0.0,1.0,66,0.00,,,0.00,32.0,meteohub,2013-05-13 11:22:00,
2013-05-13 07:27:00,56.8,46.0,30.09,SW,227,0.0,1.0,67,0.00,,,0.00,40.0,meteohub,2013-05-13 11:27:00,
2013-05-13 07:32:00,56.8,46.4,30.09,SW,228,0.0,1.0,68,0.00,,,0.00,44.0,meteohub,2013-05-13 11:32:00,
2013-05-13 07:37:00,56.8,46.4,30.09,SW,228,0.0,1.0,68,0.00,,,0.00,53.0,meteohub,2013-05-13 11:37:00,
2013-05-13 07:42:00,56.7,46.2,30.09,SW,228,0.0,1.0,68,0.00,,,0.00,56.0,meteohub,2013-05-13 11:42:00,
2013-05-13 07:47:00,56.7,46.2,30.09,SW,228,0.0,1.0,68,0.00,,,0.00,72.0,meteohub,2013-05-13 11:47:00,
2013-05-13 07:52:00,56.8,46.4,30.09,SW,228,0.0,1.0,68,0.00,,,0.00,83.0,meteohub,2013-05-13 11:52:00,
2013-05-13 07:57:00,56.8,46.4,30.10,SW,229,0.0,3.0,68,0.00,,,0.00,65.0,meteohub,2013-05-13 11:57:00,
2013-05-13 08:02:00,56.8,46.8,30.10,SW,229,0.0,3.0,69,0.00,,,0.00,65.0,meteohub,2013-05-13 12:02:00,
2013-05-13 08:07:00,57.0,46.9,30.10,SW,234,0.0,3.0,69,0.00,,,0.00,81.0,meteohub,2013-05-13 12:07:00,
2013-05-13 08:12:00,57.0,46.6,30.11,West,269,0.0,3.0,68,0.00,,,0.00,93.0,meteohub,2013-05-13 12:12:00,
2013-05-13 08:17:00,57.2,47.1,30.11,ENE,68,0.0,3.0,69,0.00,,,0.00,93.0,meteohub,2013-05-13 12:17:00,
2013-05-13 08:22:00,57.4,46.9,30.11,ENE,76,0.0,3.0,68,0.00,,,0.00,65.0,meteohub,2013-05-13 12:22:00,
2013-05-13 08:27:00,57.6,47.1,30.11,WSW,239,0.0,3.0,68,0.00,,,0.00,77.0,meteohub,2013-05-13 12:27:00,
2013-05-13 08:32:00,57.6,46.8,30.11,SW,230,0.0,3.0,67,0.00,,,0.00,51.0,meteohub,2013-05-13 12:32:00,
2013-05-13 08:37:00,57.7,46.4,30.11,West,281,0.0,2.0,66,0.00,,,0.00,63.0,meteohub,2013-05-13 12:37:00,
2013-05-13 08:42:00,57.9,46.6,30.12,NE,49,0.0,2.0,66,0.00,,,0.00,95.0,meteohub,2013-05-13 12:42:00,
2013-05-13 08:47:00,58.5,46.4,30.12,West,263,3.0,7.0,64,0.00,,,0.00,114.0,meteohub,2013-05-13 12:47:00,
2013-05-13 08:52:00,58.8,46.2,30.11,West,263,5.0,7.0,63,0.00,,,0.00,79.0,meteohub,2013-05-13 12:52:00,
2013-05-13 08:57:00,59.2,46.2,30.12,West,265,0.0,6.0,62,0.00,,,0.00,84.0,meteohub,2013-05-13 12:57:00,
2013-05-13 09:04:00,60.1,46.2,30.12,NE,48,0.0,6.0,60,0.00,,,0.00,512.0,meteohub,2013-05-13 13:04:00,
2013-05-13 09:10:00,61.0,46.6,30.12,NE,54,1.0,6.0,59,0.00,,,0.00,260.0,meteohub,2013-05-13 13:10:00,
2013-05-13 09:17:00,61.9,46.9,30.12,NE,40,0.0,4.0,58,0.00,,,0.00,506.0,meteohub,2013-05-13 13:17:00,
2013-05-13 09:22:00,62.6,46.8,30.13,NE,37,0.0,4.0,56,0.00,,,0.00,345.0,meteohub,2013-05-13 13:22:00,
2013-05-13 09:27:00,63.1,47.1,30.12,NNW,346,0.0,5.0,56,0.00,,,0.00,550.0,meteohub,2013-05-13 13:27:00,
2013-05-13 09:32:00,63.7,47.3,30.13,SW,229,1.0,5.0,55,0.00,,,0.00,563.0,meteohub,2013-05-13 13:32:00,
2013-05-13 09:37:00,64.2,47.3,30.13,South,184,0.0,5.0,54,0.00,,,0.00,578.0,meteohub,2013-05-13 13:37:00,
2013-05-13 09:42:00,64.6,47.5,30.13,West,261,0.0,5.0,54,0.00,,,0.00,603.0,meteohub,2013-05-13 13:42:00,
2013-05-13 09:47:00,64.9,47.8,30.13,NNW,327,0.0,9.0,54,0.00,,,0.00,599.0,meteohub,2013-05-13 13:47:00,
2013-05-13 09:54:00,65.7,49.1,30.13,WNW,299,1.0,9.0,55,0.00,,,0.00,689.0,meteohub,2013-05-13 13:54:00,
2013-05-13 10:00:00,66.0,47.3,30.14,SW,221,1.0,4.0,51,0.00,,,0.00,575.0,meteohub,2013-05-13 14:00:00,
2013-05-13 10:06:00,65.8,47.7,30.14,WSW,244,5.0,6.0,52,0.00,,,0.00,603.0,meteohub,2013-05-13 14:06:00,
2013-05-13 10:12:00,65.8,48.7,30.14,West,280,0.0,6.0,54,0.00,,,0.00,269.0,meteohub,2013-05-13 14:12:00,
2013-05-13 10:17:00,65.7,47.5,30.14,NNW,343,0.0,6.0,52,0.00,,,0.00,847.0,meteohub,2013-05-13 14:17:00,
2013-05-13 10:22:00,65.8,47.7,30.14,NNE,15,0.0,6.0,52,0.00,,,0.00,520.0,meteohub,2013-05-13 14:22:00,
2013-05-13 10:28:00,66.2,48.0,30.14,NNW,346,0.0,6.0,52,0.00,,,0.00,773.0,meteohub,2013-05-13 14:28:00,
2013-05-13 10:34:00,67.3,49.1,30.14,West,267,1.0,3.0,52,0.00,,,0.00,775.0,meteohub,2013-05-13 14:34:00,
2013-05-13 10:40:00,68.2,50.4,30.14,WNW,293,3.0,6.0,53,0.00,,,0.00,789.0,meteohub,2013-05-13 14:40:00,
2013-05-13 10:46:00,69.4,47.8,30.14,SW,231,4.0,6.0,46,0.00,,,0.00,807.0,meteohub,2013-05-13 14:46:00,
2013-05-13 10:52:00,69.6,46.2,30.15,SW,236,6.0,6.0,43,0.00,,,0.00,819.0,meteohub,2013-05-13 14:52:00,
2013-05-13 10:57:00,69.4,46.6,30.14,West,271,0.0,11.0,44,0.00,,,0.00,830.0,meteohub,2013-05-13 14:57:00,
2013-05-13 11:02:00,70.0,48.7,30.14,West,270,3.0,11.0,47,0.00,,,0.00,844.0,meteohub,2013-05-13 15:02:00,
2013-05-13 11:07:00,70.2,46.6,30.14,West,259,3.0,11.0,43,0.00,,,0.00,858.0,meteohub,2013-05-13 15:07:00,
2013-05-13 11:12:00,70.0,43.9,30.14,East,84,2.0,11.0,39,0.00,,,0.00,872.0,meteohub,2013-05-13 15:12:00,
2013-05-13 11:17:00,70.3,45.5,30.14,West,274,0.0,9.0,41,0.00,,,0.00,884.0,meteohub,2013-05-13 15:17:00,
2013-05-13 11:23:00,70.9,46.6,30.15,WNW,300,0.0,7.0,42,0.00,,,0.00,916.0,meteohub,2013-05-13 15:23:00,
2013-05-13 11:29:00,70.9,44.8,30.15,NE,37,4.0,7.0,39,0.00,,,0.00,909.0,meteohub,2013-05-13 15:29:00,
2013-05-13 11:35:00,71.1,48.0,30.15,West,266,1.0,7.0,44,0.00,,,0.00,916.0,meteohub,2013-05-13 15:35:00,
2013-05-13 11:41:00,70.9,45.3,30.14,West,263,0.0,7.0,40,0.00,,,0.00,933.0,meteohub,2013-05-13 15:41:00,
2013-05-13 11:47:00,71.1,44.8,30.14,West,281,5.0,9.0,39,0.00,,,0.00,935.0,meteohub,2013-05-13 15:47:00,
2013-05-13 11:52:00,71.8,44.1,30.15,NNW,329,2.0,9.0,37,0.00,,,0.00,947.0,meteohub,2013-05-13 15:52:00,
2013-05-13 11:57:00,71.8,46.8,30.15,SE,127,0.0,11.0,41,0.00,,,0.00,953.0,meteohub,2013-05-13 15:57:00,
2013-05-13 12:03:00,71.8,44.8,30.15,WSW,250,4.0,11.0,38,0.00,,,0.00,965.0,meteohub,2013-05-13 16:03:00,
2013-05-13 12:09:00,72.1,45.1,30.14,SW,233,5.0,11.0,38,0.00,,,0.00,974.0,meteohub,2013-05-13 16:09:00,
2013-05-13 12:15:00,72.1,43.0,30.14,East,95,0.0,9.0,35,0.00,,,0.00,981.0,meteohub,2013-05-13 16:15:00,
2013-05-13 12:21:00,72.9,45.1,30.14,WSW,252,1.0,9.0,37,0.00,,,0.00,990.0,meteohub,2013-05-13 16:21:00,
2013-05-13 12:27:00,72.9,47.1,30.14,SSE,155,1.0,9.0,40,0.00,,,0.00,997.0,meteohub,2013-05-13 16:27:00,
2013-05-13 12:32:00,72.7,46.9,30.14,West,263,1.0,9.0,40,0.00,,,0.00,997.0,meteohub,2013-05-13 16:32:00,
2013-05-13 12:37:00,72.7,46.2,30.14,West,264,2.0,9.0,39,0.00,,,0.00,1000.0,meteohub,2013-05-13 16:37:00,
2013-05-13 12:42:00,73.4,44.8,30.14,NNW,335,1.0,9.0,36,0.00,,,0.00,1002.0,meteohub,2013-05-13 16:42:00,
2013-05-13 12:47:00,73.2,45.3,30.14,NE,49,3.0,8.0,37,0.00,,,0.00,1007.0,meteohub,2013-05-13 16:47:00,
2013-05-13 12:52:00,73.0,44.4,30.14,ESE,105,1.0,8.0,36,0.00,,,0.00,1016.0,meteohub,2013-05-13 16:52:00,
2013-05-13 12:58:00,73.6,45.0,30.14,WSW,251,3.0,7.0,36,0.00,,,0.00,1020.0,meteohub,2013-05-13 16:58:00,
2013-05-13 13:05:00,74.1,46.2,30.14,WSW,256,1.0,7.0,37,0.00,,,0.00,1021.0,meteohub,2013-05-13 17:05:00,
2013-05-13 13:11:00,73.9,47.5,30.13,SSW,213,0.0,7.0,39,0.00,,,0.00,1028.0,meteohub,2013-05-13 17:11:00,
2013-05-13 13:17:00,74.5,45.9,30.13,WSW,258,3.0,9.0,36,0.00,,,0.00,1042.0,meteohub,2013-05-13 17:17:00,
2013-05-13 13:22:00,74.8,45.3,30.13,West,261,0.0,9.0,35,0.00,,,0.00,1041.0,meteohub,2013-05-13 17:22:00,
2013-05-13 13:27:00,74.5,45.9,30.13,WSW,239,4.0,9.0,36,0.00,,,0.00,1034.0,meteohub,2013-05-13 17:27:00,
2013-05-13 13:32:00,73.8,44.4,30.13,ESE,119,4.0,9.0,35,0.00,,,0.00,1028.0,meteohub,2013-05-13 17:32:00,
2013-05-13 13:37:00,74.5,45.9,30.13,NNW,328,4.0,7.0,36,0.00,,,0.00,1023.0,meteohub,2013-05-13 17:37:00,
2013-05-13 13:42:00,74.8,46.8,30.12,WSW,238,5.0,7.0,37,0.00,,,0.00,1021.0,meteohub,2013-05-13 17:42:00,
2013-05-13 13:47:00,75.2,45.7,30.12,SW,228,1.0,7.0,35,0.00,,,0.00,1021.0,meteohub,2013-05-13 17:47:00,
2013-05-13 13:52:00,74.8,47.5,30.12,West,269,0.0,7.0,38,0.00,,,0.00,1027.0,meteohub,2013-05-13 17:52:00,
2013-05-13 13:57:00,75.2,45.0,30.12,SSW,212,2.0,5.0,34,0.00,,,0.00,1023.0,meteohub,2013-05-13 17:57:00,
2013-05-13 14:02:00,75.6,46.8,30.12,NW,304,1.0,12.0,36,0.00,,,0.00,1016.0,meteohub,2013-05-13 18:02:00,
2013-05-13 14:07:00,75.6,46.0,30.12,SW,223,0.0,12.0,35,0.00,,,0.00,1016.0,meteohub,2013-05-13 18:07:00,
2013-05-13 14:12:00,75.6,44.4,30.12,North,11,2.0,12.0,33,0.00,,,0.00,1014.0,meteohub,2013-05-13 18:12:00,
2013-05-13 14:17:00,75.6,47.5,30.12,West,275,7.0,7.0,37,0.00,,,0.00,1002.0,meteohub,2013-05-13 18:17:00,
2013-05-13 14:22:00,75.6,43.7,30.12,NNW,337,2.0,7.0,32,0.00,,,0.00,997.0,meteohub,2013-05-13 18:22:00,
2013-05-13 14:27:00,75.6,46.8,30.12,WSW,257,7.0,10.0,36,0.00,,,0.00,991.0,meteohub,2013-05-13 18:27:00,
2013-05-13 14:32:00,75.7,46.9,30.12,WNW,294,0.0,10.0,36,0.00,,,0.00,984.0,meteohub,2013-05-13 18:32:00,
2013-05-13 14:37:00,75.7,47.7,30.11,West,279,1.0,10.0,37,0.00,,,0.00,981.0,meteohub,2013-05-13 18:37:00,
2013-05-13 14:42:00,76.3,50.9,30.11,West,275,1.0,10.0,41,0.00,,,0.00,977.0,meteohub,2013-05-13 18:42:00,
2013-05-13 14:47:00,76.5,45.1,30.11,SW,230,1.0,9.0,33,0.00,,,0.00,977.0,meteohub,2013-05-13 18:47:00,
2013-05-13 14:52:00,76.3,43.3,30.11,WNW,287,6.0,9.0,31,0.00,,,0.00,969.0,meteohub,2013-05-13 18:52:00,
2013-05-13 14:57:00,76.5,46.8,30.11,ENE,70,0.0,6.0,35,0.00,,,0.00,958.0,meteohub,2013-05-13 18:57:00,
2013-05-13 15:02:00,76.1,46.4,30.11,NW,311,1.0,12.0,35,0.00,,,0.00,951.0,meteohub,2013-05-13 19:02:00,
2013-05-13 15:07:00,76.8,44.8,30.11,West,261,0.0,12.0,32,0.00,,,0.00,939.0,meteohub,2013-05-13 19:07:00,
2013-05-13 15:14:00,77.0,45.7,30.11,ENE,76,0.0,7.0,33,0.00,,,0.00,928.0,meteohub,2013-05-13 19:14:00,
2013-05-13 15:20:00,76.8,43.9,30.11,SW,228,1.0,6.0,31,0.00,,,0.00,921.0,meteohub,2013-05-13 19:20:00,
2013-05-13 15:26:00,76.6,44.6,30.10,WNW,284,0.0,11.0,32,0.00,,,0.00,904.0,meteohub,2013-05-13 19:26:00,
2013-05-13 15:32:00,76.8,43.9,30.09,SW,227,2.0,11.0,31,0.00,,,0.00,895.0,meteohub,2013-05-13 19:32:00,
2013-05-13 15:37:00,77.2,44.2,30.09,WNW,288,1.0,11.0,31,0.00,,,0.00,882.0,meteohub,2013-05-13 19:37:00,
2013-05-13 15:42:00,77.5,46.9,30.09,WSW,257,5.0,11.0,34,0.00,,,0.00,870.0,meteohub,2013-05-13 19:42:00,
2013-05-13 15:47:00,77.4,46.8,30.09,ENE,74,0.0,7.0,34,0.00,,,0.00,853.0,meteohub,2013-05-13 19:47:00,
2013-05-13 15:52:00,77.5,45.3,30.09,East,86,1.0,7.0,32,0.00,,,0.00,846.0,meteohub,2013-05-13 19:52:00,
2013-05-13 15:57:00,77.2,44.2,30.09,North,0,1.0,10.0,31,0.00,,,0.00,831.0,meteohub,2013-05-13 19:57:00,
2013-05-13 16:02:00,77.4,43.5,30.09,ENE,76,4.0,10.0,30,0.00,,,0.00,821.0,meteohub,2013-05-13 20:02:00,
2013-05-13 16:07:00,77.4,44.4,30.09,ENE,64,5.0,10.0,31,0.00,,,0.00,810.0,meteohub,2013-05-13 20:07:00,
2013-05-13 16:12:00,77.5,46.2,30.09,NNW,346,1.0,10.0,33,0.00,,,0.00,795.0,meteohub,2013-05-13 20:12:00,
2013-05-13 16:17:00,77.4,41.7,30.09,East,84,0.0,9.0,28,0.00,,,0.00,779.0,meteohub,2013-05-13 20:17:00,
2013-05-13 16:22:00,77.5,45.3,30.09,West,271,1.0,9.0,32,0.00,,,0.00,766.0,meteohub,2013-05-13 20:22:00,
2013-05-13 16:27:00,77.7,46.4,30.09,WSW,252,5.0,9.0,33,0.00,,,0.00,749.0,meteohub,2013-05-13 20:27:00,
2013-05-13 16:32:00,78.3,48.4,30.09,WSW,248,0.0,9.0,35,0.00,,,0.00,737.0,meteohub,2013-05-13 20:32:00,
2013-05-13 16:37:00,78.4,46.2,30.08,West,260,5.0,9.0,32,0.00,,,0.00,721.0,meteohub,2013-05-13 20:37:00,
2013-05-13 16:42:00,78.6,46.2,30.08,SSE,159,1.0,9.0,32,0.00,,,0.00,707.0,meteohub,2013-05-13 20:42:00,
2013-05-13 16:47:00,78.6,44.6,30.08,SW,218,0.0,12.0,30,0.00,,,0.00,691.0,meteohub,2013-05-13 20:47:00,
2013-05-13 16:52:00,79.0,45.0,30.07,West,264,6.0,12.0,30,0.00,,,0.00,675.0,meteohub,2013-05-13 20:52:00,
2013-05-13 16:57:00,78.8,45.7,30.08,South,191,0.0,12.0,31,0.00,,,0.00,657.0,meteohub,2013-05-13 20:57:00,
2013-05-13 17:02:00,79.0,45.0,30.08,WNW,283,0.0,6.0,30,0.00,,,0.00,638.0,meteohub,2013-05-13 21:02:00,
2013-05-13 17:07:00,78.8,44.8,30.07,NE,45,1.0,10.0,30,0.00,,,0.00,626.0,meteohub,2013-05-13 21:07:00,
2013-05-13 17:12:00,78.6,43.7,30.07,NNE,32,4.0,10.0,29,0.00,,,0.00,608.0,meteohub,2013-05-13 21:12:00,
2013-05-13 17:17:00,78.6,46.2,30.07,North,0,1.0,10.0,32,0.00,,,0.00,592.0,meteohub,2013-05-13 21:17:00,
2013-05-13 17:22:00,78.4,43.5,30.07,WSW,240,2.0,10.0,29,0.00,,,0.00,575.0,meteohub,2013-05-13 21:22:00,
2013-05-13 17:27:00,78.4,43.5,30.07,SW,217,0.0,10.0,29,0.00,,,0.00,557.0,meteohub,2013-05-13 21:27:00,
2013-05-13 17:32:00,78.1,44.1,30.07,NNE,24,4.0,10.0,30,0.00,,,0.00,540.0,meteohub,2013-05-13 21:32:00,
2013-05-13 17:37:00,77.9,43.2,30.07,South,187,0.0,7.0,29,0.00,,,0.00,524.0,meteohub,2013-05-13 21:37:00,
2013-05-13 17:42:00,78.1,45.0,30.08,WSW,251,0.0,7.0,31,0.00,,,0.00,504.0,meteohub,2013-05-13 21:42:00,
2013-05-13 17:47:00,78.1,43.2,30.07,SW,218,1.0,6.0,29,0.00,,,0.00,487.0,meteohub,2013-05-13 21:47:00,
2013-05-13 17:52:00,78.1,45.0,30.07,WSW,257,2.0,6.0,31,0.00,,,0.00,464.0,meteohub,2013-05-13 21:52:00,
2013-05-13 17:57:00,78.1,45.9,30.07,North,5,0.0,7.0,32,0.00,,,0.00,135.0,meteohub,2013-05-13 21:57:00,
2013-05-13 18:02:00,77.7,44.6,30.07,WSW,256,5.0,7.0,31,0.00,,,0.00,346.0,meteohub,2013-05-13 22:02:00,
2013-05-13 18:07:00,77.7,43.0,30.07,WSW,240,0.0,6.0,29,0.00,,,0.00,366.0,meteohub,2013-05-13 22:07:00,
2013-05-13 18:12:00,77.5,43.7,30.07,SW,214,0.0,6.0,30,0.00,,,0.00,357.0,meteohub,2013-05-13 22:12:00,
2013-05-13 18:17:00,77.4,43.5,30.07,NNW,340,1.0,5.0,30,0.00,,,0.00,221.0,meteohub,2013-05-13 22:17:00,
2013-05-13 18:22:00,77.0,44.1,30.07,SW,224,0.0,5.0,31,0.00,,,0.00,255.0,meteohub,2013-05-13 22:22:00,
2013-05-13 18:27:00,76.8,43.9,30.07,WSW,254,1.0,5.0,31,0.00,,,0.00,183.0,meteohub,2013-05-13 22:27:00,
2013-05-13 18:32:00,76.5,43.5,30.07,SW,234,0.0,5.0,31,0.00,,,0.00,178.0,meteohub,2013-05-13 22:32:00,
2013-05-13 18:37:00,76.1,44.1,30.07,NNW,333,1.0,5.0,32,0.00,,,0.00,49.0,meteohub,2013-05-13 22:37:00,
2013-05-13 18:43:00,75.7,42.1,30.07,SSW,194,0.0,5.0,30,0.00,,,0.00,47.0,meteohub,2013-05-13 22:43:00,
2013-05-13 18:49:00,75.4,42.6,30.07,NNE,19,1.0,5.0,31,0.00,,,0.00,46.0,meteohub,2013-05-13 22:49:00,
2013-05-13 18:55:00,74.8,43.9,30.07,SW,221,1.0,6.0,33,0.00,,,0.00,44.0,meteohub,2013-05-13 22:55:00,
2013-05-13 19:02:00,74.5,43.5,30.08,South,170,0.0,6.0,33,0.00,,,0.00,42.0,meteohub,2013-05-13 23:02:00,
2013-05-13 19:07:00,74.1,42.4,30.08,WSW,241,0.0,6.0,32,0.00,,,0.00,40.0,meteohub,2013-05-13 23:07:00,
2013-05-13 19:12:00,73.9,43.0,30.08,West,267,2.0,6.0,33,0.00,,,0.00,37.0,meteohub,2013-05-13 23:12:00,
2013-05-13 19:17:00,73.6,42.6,30.08,WSW,252,1.0,4.0,33,0.00,,,0.00,35.0,meteohub,2013-05-13 23:17:00,
2013-05-13 19:22:00,73.2,43.9,30.08,WSW,242,1.0,5.0,35,0.00,,,0.00,33.0,meteohub,2013-05-13 23:22:00,
2013-05-13 19:27:00,73.0,44.4,30.08,WSW,243,0.0,6.0,36,0.00,,,0.00,32.0,meteohub,2013-05-13 23:27:00,
2013-05-13 19:32:00,72.9,44.4,30.08,WSW,243,0.0,6.0,36,0.00,,,0.00,28.0,meteohub,2013-05-13 23:32:00,
2013-05-13 19:37:00,72.7,46.2,30.08,WSW,243,0.0,5.0,39,0.00,,,0.00,26.0,meteohub,2013-05-13 23:37:00,
2013-05-13 19:42:00,72.3,46.6,30.08,WSW,243,0.0,5.0,40,0.00,,,0.00,23.0,meteohub,2013-05-13 23:42:00,
2013-05-13 19:47:00,72.0,46.4,30.08,WSW,243,0.0,1.0,40,0.00,,,0.00,19.0,meteohub,2013-05-13 23:47:00,
2013-05-13 19:52:00,71.6,47.3,30.09,WSW,243,0.0,1.0,42,0.00,,,0.00,16.0,meteohub,2013-05-13 23:52:00,
2013-05-13 19:57:00,71.2,48.7,30.09,SSW,192,0.0,1.0,45,0.00,,,0.00,14.0,meteohub,2013-05-13 23:57:00,
2013-05-13 20:02:00,70.9,49.1,30.09,SSW,192,0.0,1.0,46,0.00,,,0.00,11.0,meteohub,2013-05-14 00:02:00,
2013-05-13 20:07:00,70.5,49.8,30.09,SSW,192,0.0,1.0,48,0.00,,,0.00,7.0,meteohub,2013-05-14 00:07:00,
2013-05-13 20:12:00,70.2,48.9,30.09,SSW,192,0.0,1.0,47,0.00,,,0.00,5.0,meteohub,2013-05-14 00:12:00,
2013-05-13 20:17:00,69.4,48.4,30.09,SSW,192,0.0,0.0,47,0.00,,,0.00,0.0,meteohub,2013-05-14 00:17:00,
2013-05-13 20:22:00,68.9,48.9,30.09,SSW,192,0.0,0.0,49,0.00,,,0.00,0.0,meteohub,2013-05-14 00:22:00,
2013-05-13 20:27:00,68.2,49.3,30.09,SSW,192,0.0,0.0,51,0.00,,,0.00,0.0,meteohub,2013-05-14 00:27:00,
2013-05-13 20:32:00,67.6,50.4,30.10,SSW,192,0.0,0.0,54,0.00,,,0.00,0.0,meteohub,2013-05-14 00:32:00,
2013-05-13 20:37:00,66.9,49.8,30.10,SSW,192,0.0,0.0,54,0.00,,,0.00,0.0,meteohub,2013-05-14 00:37:00,
2013-05-13 20:42:00,66.4,49.6,30.11,SSW,192,0.0,0.0,55,0.00,,,0.00,0.0,meteohub,2013-05-14 00:42:00,
2013-05-13 20:47:00,65.7,49.1,30.11,SSW,192,0.0,0.0,55,0.00,,,0.00,0.0,meteohub,2013-05-14 00:47:00,
2013-05-13 20:53:00,64.9,48.4,30.11,SSW,192,0.0,0.0,55,0.00,,,0.00,0.0,meteohub,2013-05-14 00:53:00,
2013-05-13 20:59:00,64.2,48.7,30.12,SSW,192,0.0,0.0,57,0.00,,,0.00,0.0,meteohub,2013-05-14 00:59:00,
2013-05-13 21:05:00,63.7,48.2,30.12,SSW,192,0.0,0.0,57,0.00,,,0.00,0.0,meteohub,2013-05-14 01:05:00,
2013-05-13 21:11:00,63.1,48.2,30.12,SSW,192,0.0,0.0,58,0.00,,,0.00,0.0,meteohub,2013-05-14 01:11:00,
2013-05-13 21:17:00,62.6,47.7,30.12,SSW,192,0.0,0.0,58,0.00,,,0.00,0.0,meteohub,2013-05-14 01:17:00,
2013-05-13 21:22:00,62.2,48.6,30.13,SSW,192,0.0,0.0,61,0.00,,,0.00,0.0,meteohub,2013-05-14 01:22:00,
2013-05-13 21:27:00,62.1,49.8,30.13,SSW,192,0.0,0.0,64,0.00,,,0.00,0.0,meteohub,2013-05-14 01:27:00,
2013-05-13 21:32:00,61.7,50.2,30.13,SSW,192,0.0,0.0,66,0.00,,,0.00,0.0,meteohub,2013-05-14 01:32:00,
2013-05-13 21:37:00,61.3,50.7,30.13,SSW,192,0.0,0.0,68,0.00,,,0.00,0.0,meteohub,2013-05-14 01:37:00,
2013-05-13 21:42:00,61.2,50.5,30.13,SSW,192,0.0,0.0,68,0.00,,,0.00,0.0,meteohub,2013-05-14 01:42:00,
2013-05-13 21:47:00,60.8,50.9,30.13,SSW,192,0.0,0.0,70,0.00,,,0.00,0.0,meteohub,2013-05-14 01:47:00,
2013-05-13 21:52:00,60.4,51.1,30.13,SSW,192,0.0,0.0,71,0.00,,,0.00,0.0,meteohub,2013-05-14 01:52:00,
2013-05-13 21:57:00,60.1,50.2,30.13,SSW,192,0.0,1.0,70,0.00,,,0.00,0.0,meteohub,2013-05-14 01:57:00,
2013-05-13 22:02:00,59.5,48.9,30.13,SSW,192,0.0,1.0,68,0.00,,,0.00,0.0,meteohub,2013-05-14 02:02:00,
2013-05-13 22:07:00,59.2,48.6,30.14,SSW,192,0.0,1.0,68,0.00,,,0.00,0.0,meteohub,2013-05-14 02:07:00,
2013-05-13 22:13:00,58.8,47.8,30.14,SSW,192,0.0,0.0,67,0.00,,,0.00,0.0,meteohub,2013-05-14 02:13:00,
2013-05-13 22:19:00,58.6,47.3,30.14,SSW,192,0.0,0.0,66,0.00,,,0.00,0.0,meteohub,2013-05-14 02:19:00,
2013-05-13 22:25:00,58.3,46.6,30.14,SSW,192,0.0,0.0,65,0.00,,,0.00,0.0,meteohub,2013-05-14 02:25:00,
2013-05-13 22:31:00,57.9,46.2,30.14,SSW,192,0.0,0.0,65,0.00,,,0.00,0.0,meteohub,2013-05-14 02:31:00,
2013-05-13 22:37:00,57.7,46.4,30.15,SSW,192,0.0,0.0,66,0.00,,,0.00,0.0,meteohub,2013-05-14 02:37:00,
2013-05-13 22:42:00,57.6,46.2,30.15,SSW,192,0.0,0.0,66,0.00,,,0.00,0.0,meteohub,2013-05-14 02:42:00,
2013-05-13 22:47:00,57.6,46.2,30.15,SSW,192,0.0,0.0,66,0.00,,,0.00,0.0,meteohub,2013-05-14 02:47:00,
2013-05-13 22:52:00,57.4,46.0,30.15,SSW,192,0.0,0.0,66,0.00,,,0.00,0.0,meteohub,2013-05-14 02:52:00,
2013-05-13 22:57:00,57.0,45.9,30.15,SSW,192,0.0,0.0,66,0.00,,,0.00,0.0,meteohub,2013-05-14 02:57:00,
2013-05-13 23:02:00,57.0,45.9,30.15,SSW,192,0.0,0.0,66,0.00,,,0.00,0.0,meteohub,2013-05-14 03:02:00,
2013-05-13 23:07:00,56.8,45.7,30.15,SSW,192,0.0,0.0,66,0.00,,,0.00,0.0,meteohub,2013-05-14 03:07:00,
2013-05-13 23:12:00,56.7,45.5,30.15,SSW,192,0.0,0.0,66,0.00,,,0.00,0.0,meteohub,2013-05-14 03:12:00,
2013-05-13 23:17:00,56.7,45.0,30.16,SSW,192,0.0,0.0,65,0.00,,,0.00,0.0,meteohub,2013-05-14 03:17:00,
2013-05-13 23:22:00,56.5,44.8,30.15,SSW,192,0.0,0.0,65,0.00,,,0.00,0.0,meteohub,2013-05-14 03:22:00,
2013-05-13 23:27:00,56.3,44.6,30.16,SSW,192,0.0,0.0,65,0.00,,,0.00,0.0,meteohub,2013-05-14 03:27:00,
2013-05-13 23:32:00,56.1,44.6,30.16,SSW,192,0.0,0.0,65,0.00,,,0.00,0.0,meteohub,2013-05-14 03:32:00,
2013-05-13 23:37:00,55.9,44.8,30.16,SSW,192,0.0,0.0,66,0.00,,,0.00,0.0,meteohub,2013-05-14 03:37:00,
2013-05-13 23:42:00,55.9,44.8,30.16,SSW,192,0.0,0.0,66,0.00,,,0.00,0.0,meteohub,2013-05-14 03:42:00,
2013-05-13 23:47:00,55.8,44.6,30.16,SSW,192,0.0,0.0,66,0.00,,,0.00,0.0,meteohub,2013-05-14 03:47:00,
2013-05-13 23:52:00,55.6,44.8,30.16,SSW,192,0.0,0.0,67,0.00,,,0.00,0.0,meteohub,2013-05-14 03:52:00,
2013-05-13 23:57:00,55.2,44.4,30.15,SSW,192,0.0,0.0,67,0.00,,,0.00,0.0,meteohub,2013-05-14 03:57:00,